When you browse on this site, cookies collect data to enhance your experience and personalize the content and advertising you see.
Visit our Privacy Policy to learn more. By continuing to use the site, you agree to this use of cookies and data.
  • In Schweiz
  • Länderverzeichnis
  • Für 7 Tage
  • Wassertemperatur
  • Wetterkarte
  • Widgets
  • user-avatar
    Anmelden

    Stündliche Wetter Banbridge

    Heute, 27 Mai, Mittwoch

    Zeit Temperatur Niederschläge Wind Luftdruck Luftfeuchtigkeit
    00:00 +8°C° 0 mm 1 m/S 770 mmHg 91%
    01:00 +8°C° 0 mm 1 m/S 770 mmHg 91%
    02:00 +8°C° 0 mm 1 m/S 770 mmHg 90%
    03:00 +8°C° 0 mm 1 m/S 770 mmHg 90%
    04:00 +9°C° 0 mm 1 m/S 770 mmHg 88%
    05:00 +10°C° 0 mm 1 m/S 770 mmHg 86%
    06:00 +10°C° 0 mm 1 m/S 770 mmHg 84%
    07:00 +11°C° 0 mm 1 m/S 770 mmHg 84%
    08:00 +11°C° 0 mm 1 m/S 770 mmHg 83%
    09:00 +12°C° 0 mm 1 m/S 770 mmHg 82%
    10:00 +12°C° 0 mm 1 m/S 770 mmHg 81%
    11:00 +13°C° 0 mm 1 m/S 770 mmHg 80%
    12:00 +13°C° 0 mm 1 m/S 770 mmHg 79%
    13:00 +14°C° 0 mm 1 m/S 770 mmHg 78%
    14:00 +15°C° 0 mm 1 m/S 770 mmHg 77%
    15:00 +16°C° 0 mm 1 m/S 769 mmHg 75%
    16:00 +16°C° 0 mm 1 m/S 769 mmHg 76%
    17:00 +16°C° 0 mm 2 m/S 769 mmHg 78%
    18:00 +16°C° 0 mm 2 m/S 769 mmHg 79%
    19:00 +15°C° 0 mm 2 m/S 769 mmHg 82%
    20:00 +13°C° 0 mm 2 m/S 769 mmHg 85%
    21:00 +12°C° 0 mm 2 m/S 769 mmHg 89%
    22:00 +11°C° 0 mm 1 m/S 769 mmHg 88%
    23:00 +11°C° 0 mm 1 m/S 769 mmHg 87%

    Morgen, 28 Mai, Donnerstag

    Zeit Temperatur Niederschläge Wind Luftdruck Luftfeuchtigkeit
    00:00 +11°C° 0 mm 1 m/S 769 mmHg 86%
    01:00 +11°C° 0 mm 1 m/S 768 mmHg 86%
    02:00 +11°C° 0 mm 1 m/S 768 mmHg 86%
    03:00 +10°C° 0 mm 1 m/S 768 mmHg 86%
    04:00 +11°C° 0 mm 1 m/S 767 mmHg 85%
    05:00 +12°C° 0 mm 1 m/S 767 mmHg 84%
    06:00 +13°C° 0 mm 1 m/S 767 mmHg 83%
    07:00 +14°C° 0 mm 1 m/S 767 mmHg 80%
    08:00 +16°C° 0 mm 2 m/S 767 mmHg 76%
    09:00 +17°C° 0 mm 2 m/S 767 mmHg 73%
    10:00 +18°C° 0 mm 2 m/S 767 mmHg 72%
    11:00 +19°C° 0 mm 3 m/S 766 mmHg 71%
    12:00 +19°C° 0 mm 3 m/S 766 mmHg 70%
    13:00 +19°C° 0 mm 3 m/S 766 mmHg 71%
    14:00 +20°C° 0 mm 3 m/S 765 mmHg 72%
    15:00 +20°C° 0 mm 3 m/S 765 mmHg 73%
    16:00 +19°C° 0 mm 3 m/S 765 mmHg 75%
    17:00 +19°C° 0 mm 3 m/S 764 mmHg 77%
    18:00 +18°C° 0 mm 3 m/S 764 mmHg 79%
    19:00 +16°C° 0 mm 3 m/S 764 mmHg 83%
    20:00 +14°C° 0 mm 3 m/S 764 mmHg 87%
    21:00 +13°C° 0 mm 2 m/S 763 mmHg 92%
    22:00 +13°C° 0 mm 2 m/S 763 mmHg 92%
    23:00 +13°C° 0 mm 2 m/S 763 mmHg 93%

    übermorgen, 29 Mai, Freitag

    Zeit Temperatur Niederschläge Wind Luftdruck Luftfeuchtigkeit
    00:00 +12°C° 0 mm 2 m/S 763 mmHg 93%
    01:00 +12°C° 0 mm 2 m/S 763 mmHg 93%
    02:00 +12°C° 0 mm 2 m/S 762 mmHg 92%
    03:00 +12°C° 0 mm 2 m/S 762 mmHg 92%
    04:00 +13°C° 0 mm 2 m/S 762 mmHg 92%
    05:00 +12°C° 0 mm 3 m/S 762 mmHg 92%
    06:00 +13°C° 0 mm 3 m/S 762 mmHg 92%
    07:00 +14°C° 0 mm 4 m/S 761 mmHg 84%
    08:00 +15°C° 0 mm 4 m/S 761 mmHg 77%
    09:00 +16°C° 0 mm 5 m/S 761 mmHg 70%
    10:00 +16°C° 0 mm 5 m/S 761 mmHg 67%
    11:00 +17°C° 0 mm 6 m/S 761 mmHg 65%
    12:00 +17°C° 0 mm 6 m/S 761 mmHg 63%
    13:00 +17°C° 0 mm 6 m/S 760 mmHg 63%
    14:00 +17°C° 0 mm 6 m/S 760 mmHg 64%
    15:00 +17°C° 0 mm 6 m/S 760 mmHg 65%
    16:00 +16°C° 0 mm 5 m/S 760 mmHg 68%
    17:00 +16°C° 0 mm 5 m/S 760 mmHg 71%
    18:00 +17°C° 0 mm 4 m/S 759 mmHg 74%
    19:00 +14°C° 0 mm 4 m/S 759 mmHg 78%
    20:00 +13°C° 0 mm 3 m/S 760 mmHg 82%
    21:00 +13°C° 0 mm 2 m/S 760 mmHg 86%
    22:00 +12°C° 0 mm 2 m/S 760 mmHg 87%
    23:00 +12°C° 0 mm 2 m/S 760 mmHg 87%

    30 Mai, Samstag

    Zeit Temperatur Niederschläge Wind Luftdruck Luftfeuchtigkeit
    00:00 +10°C° 0 mm 2 m/S 760 mmHg 87%
    01:00 +10°C° 0 mm 2 m/S 760 mmHg 88%
    02:00 +10°C° 0 mm 2 m/S 760 mmHg 88%
    03:00 +10°C° 0 mm 2 m/S 760 mmHg 89%
    04:00 +12°C° 0 mm 2 m/S 760 mmHg 88%
    05:00 +13°C° 0 mm 2 m/S 760 mmHg 86%
    06:00 +14°C° 0 mm 2 m/S 760 mmHg 85%
    07:00 +15°C° 0 mm 2 m/S 760 mmHg 81%
    08:00 +17°C° 0 mm 3 m/S 760 mmHg 77%
    09:00 +18°C° 0 mm 3 m/S 760 mmHg 72%
    10:00 +19°C° 0 mm 3 m/S 760 mmHg 70%
    11:00 +19°C° 0 mm 4 m/S 760 mmHg 68%
    12:00 +20°C° 0 mm 4 m/S 760 mmHg 66%
    13:00 +20°C° 0 mm 4 m/S 760 mmHg 66%
    14:00 +20°C° 0 mm 4 m/S 760 mmHg 65%
    15:00 +20°C° 0 mm 4 m/S 760 mmHg 65%
    16:00 +19°C° 0 mm 3 m/S 759 mmHg 68%
    17:00 +18°C° 0 mm 3 m/S 759 mmHg 70%
    18:00 +18°C° 0 mm 2 m/S 759 mmHg 73%
    19:00 +16°C° 0 mm 2 m/S 759 mmHg 77%
    20:00 +14°C° 0 mm 2 m/S 759 mmHg 82%
    21:00 +12°C° 0 mm 1 m/S 759 mmHg 86%
    22:00 +12°C° 0 mm 1 m/S 759 mmHg 86%
    23:00 +11°C° 0 mm 1 m/S 759 mmHg 86%

    31 Mai, Sonntag

    Zeit Temperatur Niederschläge Wind Luftdruck Luftfeuchtigkeit
    00:00 +11°C° 0 mm 1 m/S 759 mmHg 86%
    01:00 +10°C° 0 mm 1 m/S 759 mmHg 87%
    02:00 +10°C° 0 mm 1 m/S 759 mmHg 87%
    03:00 +10°C° 0 mm 1 m/S 759 mmHg 87%
    04:00 +10°C° 0 mm 0 m/S 759 mmHg 85%
    05:00 +11°C° 0 mm 0 m/S 759 mmHg 84%
    06:00 +12°C° 0 mm 0 m/S 759 mmHg 82%
    07:00 +15°C° 0 mm 1 m/S 759 mmHg 78%
    08:00 +16°C° 0 mm 1 m/S 759 mmHg 74%
    09:00 +17°C° 0 mm 2 m/S 759 mmHg 70%
    10:00 +18°C° 0 mm 2 m/S 759 mmHg 68%
    11:00 +19°C° 0 mm 2 m/S 759 mmHg 66%
    12:00 +20°C° 0 mm 3 m/S 759 mmHg 64%
    13:00 +20°C° 0 mm 3 m/S 759 mmHg 65%
    14:00 +20°C° 0 mm 3 m/S 758 mmHg 66%
    15:00 +20°C° 0 mm 3 m/S 758 mmHg 66%
    16:00 +20°C° 0 mm 3 m/S 758 mmHg 70%
    17:00 +19°C° 0 mm 3 m/S 757 mmHg 74%
    18:00 +18°C° 0 mm 3 m/S 757 mmHg 78%
    19:00 +17°C° 0 mm 3 m/S 757 mmHg 82%
    20:00 +14°C° 0 mm 3 m/S 757 mmHg 87%
    21:00 +13°C° 0 mm 2 m/S 757 mmHg 92%
    22:00 +13°C° 0 mm 2 m/S 757 mmHg 90%
    23:00 +13°C° 0 mm 2 m/S 757 mmHg 88%

    1 Juni, Montag

    Zeit Temperatur Niederschläge Wind Luftdruck Luftfeuchtigkeit
    00:00 +13°C° 0 mm 2 m/S 757 mmHg 86%
    01:00 +13°C° 0 mm 2 m/S 757 mmHg 87%
    02:00 +12°C° 0 mm 2 m/S 756 mmHg 87%
    03:00 +12°C° 0 mm 2 m/S 756 mmHg 87%
    04:00 +12°C° 0 mm 2 m/S 756 mmHg 87%
    05:00 +13°C° 0 mm 2 m/S 756 mmHg 86%
    06:00 +13°C° 0 mm 2 m/S 756 mmHg 86%
    07:00 +14°C° 0 mm 2 m/S 756 mmHg 82%
    08:00 +15°C° 0 mm 2 m/S 756 mmHg 79%
    09:00 +17°C° 0 mm 2 m/S 756 mmHg 75%
    10:00 +17°C° 0 mm 2 m/S 756 mmHg 74%
    11:00 +17°C° 0 mm 3 m/S 756 mmHg 73%
    12:00 +18°C° 0 mm 3 m/S 756 mmHg 72%
    13:00 +18°C° 0.1 mm 3 m/S 755 mmHg 73%
    14:00 +18°C° 0.1 mm 3 m/S 755 mmHg 74%
    15:00 +18°C° 0.1 mm 3 m/S 755 mmHg 75%
    16:00 +17°C° 0.3 mm 3 m/S 755 mmHg 78%
    17:00 +17°C° 0.3 mm 2 m/S 755 mmHg 81%
    18:00 +16°C° 0.3 mm 2 m/S 754 mmHg 84%
    19:00 +15°C° 0.3 mm 2 m/S 755 mmHg 87%
    20:00 +14°C° 0.3 mm 1 m/S 755 mmHg 90%
    21:00 +14°C° 0.3 mm 1 m/S 755 mmHg 93%
    22:00 +13°C° 0.1 mm 1 m/S 755 mmHg 93%
    23:00 +13°C° 0.1 mm 1 m/S 755 mmHg 93%
    Mehr zeigen